Regional Weather Roundup
Issued by NWS

Home | Current Version | Previous Version | Graphics & Text | Print | Product List | Glossary On
Versions: 1 2 3 4 5 6 7 8 9 10 11 12 13 14 15 16 17 18 19 20 21 22 23 24 25 26 27 28 29 30 31 32 33 34 35 36 37 38 39 40 41 42 43 44 45 46 47 48 49 50
000
ASUS45 KCYS 261610
RWRWY

WYOMING REGIONAL WEATHER ROUNDUP
NATIONAL WEATHER SERVICE CHEYENNE WY
900 AM MST WED NOV 26 2014

NOTE:  "FAIR" INDICATES FEW OR NO CLOUDS BELOW 12,000 FEET
WITH NO SIGNIFICANT WEATHER AND/OR OBSTRUCTIONS TO VISIBILITY.

WYZ001-261700-
YELLOWSTONE NATIONAL PARK

CITY           SKY/WX    TMP DP  RH WIND       PRES   REMARKS
LK YELLOWSTONE   N/A     32  28  85 W7        30.17R WCI  26
W YELLOWSTONE  NOT AVBL

$$
WYZ002>013-054>058-071-098>099-261700-
NORTHERN WYOMING

CITY           SKY/WX    TMP DP  RH WIND       PRES   REMARKS
JACKSON        CLOUDY    39  32  75 SW10G20   30.21R WCI  32
CODY           PTSUNNY   23  21  93 CALM      30.12S
GREYBULL       LGT SNOW  27  26  96 E5        30.17S FOG     WCI  22
WORLAND        PTSUNNY   22  20  92 CALM      30.17R
SHERIDAN       LGT SNOW  28  25  88 CALM      30.18S VSB 1
BUFFALO        LGT SNOW  25  21  85 SE5       30.16S FOG     WCI  19
GILLETTE       LGT SNOW  26  23  88 W5        30.18R FOG     WCI  20
HULETT           N/A    N/A N/A N/A MISG        N/A
NEWCASTLE      FAIR      27  23  86 W6        30.20R WCI  20

$$
WYZ014>020-022>026-101>103-261700-
CENTRAL WYOMING

CITY           SKY/WX    TMP DP  RH WIND       PRES   REMARKS
BIG PINEY      MOSUNNY  N/A N/A N/A NW10      30.22R
PINEDALE       PTSUNNY   36  32  87 NW16      30.21S WCI  26
DUBOIS         DRIZZLE   36  30  80 W39G48    30.08R WCI  21
LANDER         CLOUDY    26  24  92 VRB3      30.11R
RIVERTON       CLOUDY    26  21  81 E5        30.13R WCI  20
CASPER         CLOUDY    25  20  81 E5        30.15R WCI  19
DOUGLAS        CLOUDY   N/A N/A N/A CALM      30.19R

$$
WYZ021-027>030-104>119-261700-
SOUTHERN WYOMING

CITY           SKY/WX    TMP DP  RH WIND       PRES   REMARKS
EVANSTON       MOSUNNY   37  29  72 W18       30.36R WCI  27
FORT BRIDGER   CLOUDY    38  32  78 SW15G21   30.37R WCI  30
ROCK SPRINGS   SUNNY     37  29  72 W35G44    30.23S WCI  24
DIXON          CLOUDY    39  30  69 SW20G26   30.30R WCI  29
RAWLINS        MOSUNNY   38  30  73 W36G44    30.14R WCI  25
SARATOGA       FAIR      37  30  75 W41G52    30.15R WCI  23
LARAMIE        PTSUNNY   39  28  64 W26       30.09R WCI  28
CHEYENNE       MIX PCPN  24  19  81 CALM      30.16R
TORRINGTON     LGT SNOW  28  26  92 SW3       30.22R FOG
PINE BLUFFS    FLURRIES  27  23  86 CALM      30.20S

$$


USA.gov is the U.S. government's official web portal to all federal, state and local government web resources and services.